Regional Weather Roundup
Issued by NWS Jackson, KY

Home | Current Version | Previous Version | Graphics & Text | Print | Product List | Glossary On
Versions: 1 2 3 4 5 6 7 8 9 10 11 12 13 14 15 16 17 18 19 20 21 22 23 24 25 26 27 28 29 30 31 32 33 34 35 36 37 38 39 40 41 42 43 44 45 46 47 48
000
ASUS43 KJKL 021810
RWRJKL

EAST KENTUCKY HOURLY WEATHER ROUNDUP
NATIONAL WEATHER SERVICE JACKSON KY
100 PM EST MON MAR 02 2015

NOTE: "FAIR" INDICATES FEW OR NO CLOUDS BELOW 12,000 FEET WITH
NO SIGNIFICANT WEATHER AND/OR OBSTRUCTIONS TO VISIBILITY.

* THESE REPORTS ARE NOT UNDER NWS QUALITY CONTROL AND MAY NOT
  REPORT WEATHER SUCH AS PRECIPITATION AND FOG.

KYZ079-080-083-085-087-088-110-112-115-119-120-021900
...EASTERN KENTUCKY...

CITY           SKY/WX    TMP DP  RH WIND       PRES   REMARKS
JACKSON        SUNNY     40  21  46 NE5       30.42F
6HR MIN TEMP:  31; 6HR MAX TEMP:  41;

LONDON         SUNNY     41  26  55 N9        30.42F
6HR MIN TEMP:  32; 6HR MAX TEMP:  41;

SOMERSET*      SUNNY     37  28  70 NE3       30.46F
MONTICELLO*    SUNNY     42  30  62 N8        30.47F
6HR MIN TEMP:  32; 6HR MAX TEMP:  42;

HAZARD APT*    CLEAR     39  25  56 CALM      30.42F
BLACK MTN*       N/A     30  30 100 N2          N/A
PIKEVILLE APT* MOSUNNY   37  25  60 NW5       30.41F WCI  34
BIG SANDY*     CLEAR     41  20  44 NE7       30.43F
6HR MIN TEMP:  32; 6HR MAX TEMP:  41;

MOREHEAD APT*  CLEAR     34  19  55 VRB5      30.50F WCI  30
$$

KYZ035-036-041-042-044-050-067-078-099-021900
...CENTRAL KENTUCKY...

CITY           SKY/WX    TMP DP  RH WIND       PRES   REMARKS
MT STERLING*   SUNNY     34  23  64 E7        30.50F WCI  28
FLEMING/MASON* SUNNY     30  18  59 NW5       30.51F WCI  25
DANVILLE*      SUNNY     34  25  69 N3        30.49F
RICHMOND*      SUNNY     36  21  55 NE5       30.46F WCI  32
LEXINGTON      SUNNY     34  21  59 N8        30.49F WCI  27
6HR MIN TEMP:  24; 6HR MAX TEMP:  34;

FRANKFORT      SUNNY     34  20  56 NE5       30.49F WCI  30
6HR MIN TEMP:  26; 6HR MAX TEMP:  35;

$$

KYZ091>093-OHZ055-061-077-WVZ005-015-034-035-042-021900
...SOUTHERN OHIO/WEST VIRGINIA...

CITY           SKY/WX    TMP DP  RH WIND       PRES   REMARKS
COVINGTON      PTSUNNY   32  16  51 W3        30.51F
COLUMBUS       PTSUNNY   28  13  53 CALM      30.50F
DAYTON         PTSUNNY   28  14  55 N5        30.51F WCI  23
WILMINGTON     SUNNY     27  12  53 N6        30.50F WCI  20
HUNTINGTON     SUNNY     35  19  52 VRB7      30.47F WCI  29
CHARLESTON     MOSUNNY   38  20  48 NW7       30.45F WCI  33
PINEVILLE*     MOSUNNY   41  28  58 MISG      30.42F
BECKLEY        SUNNY     34  18  52 NW13      30.34F WCI  25
BLUEFIELD      MOSUNNY   37  25  61 W14       30.31F WCI  28
$$

VAZ002-007-008-TNZ017-027-036-066-071-021900
...SOUTHWEST VIRGINIA/EAST TENNESSEE...

CITY           SKY/WX    TMP DP  RH WIND       PRES   REMARKS
WISE*          MOSUNNY   37  27  65 N8        30.36F WCI  31
JONESVILLE*    CLEAR     39  28  65 CALM      30.42F
ABINGDON*      SUNNY     40  30  65 N5        30.35F
BRISTOL        PTSUNNY   42  33  70 N8        30.39S
KNOXVILLE      CLOUDY    44  36  73 N9        30.40F
OAK RIDGE      MOSUNNY   43  34  70 VRB7      30.44S
CROSSVILLE     CLOUDY    37  32  82 NE9       30.38F WCI  30
NASHVILLE      PTSUNNY   43  29  57 E5        30.45F
$$

...KEY TO REMARKS...
VSB - VISIBILITY IN MILES
WCI - WIND CHILL INDEX
HX  - HEAT INDEX

$$


USA.gov is the U.S. government's official web portal to all federal, state and local government web resources and services.